User: anonymous   Login
Location: Oshawa
(43.9000°N, 78.8670°W)
Time: 09:56:03
(UTC-05:00)
Language:

S-56A Canister/Altair - Orbit

View from above orbital plane
View from above orbital plane
View from above satellite
View from above satellite

Ground track
Ground track

The orbit data is extracted from the following two-line orbital elements,

1    82U 61004B   17346.48842206 +.00000112 +00000-0 +12946-3 0  9995
2    82 038.8607 357.1916 1173612 333.6412 020.8873 12.25901307695142
Epoch (UTC): 12 December 2017 11:43:19
Eccentricity: 0.1173612
inclination: 38.8607°
perigee height: 634 km
apogee height: 2499 km
right ascension of ascending node: 357.1916°
argument of perigee: 333.6412°
revolutions per day: 12.25901307
mean anomaly at epoch: 20.8873°
orbit number at epoch: 69514

The dashed part of the orbit path shows where the satellite is in the earth's shadow,  

DLR